GSAT0205 (GALILEO 9) (40889 NORAD) Tracking and Keplerian Element Data

This shows tracking and keplerian element data for the satellite.

Feedback or suggestion? Click here.




ElementValue
Catalog40889
NameGSAT0205 (GALILEO 9)
Epoch Orbit1771
Epoch Day198.37597713
Epoch Year2018
RAAN301.3459
Inclination56.7134
Eccentricity0.0001177
Argument of Perigee34.9742
Mean Anonmoly325.0693
Mean Motion1.7047526
Decay Rate-6E-07
L11 40889U 15045A 18198.37597713 -.00000060 00000-0 00000+0 0 9999
L22 40889 56.7134 301.3459 0001177 34.9742 325.0693 1.70475260 17713

Live tracking and technical data element details for GSAT0205 (GALILEO 9) (NORAD 40889). GSAT0205 (GALILEO 9) can be tracked NOW for your location showing map with azimuth and elevation plus other details from your city location.

Track the satellite on the map from your city or location and see movement details for azimuth, elevation, latitude, longitude, range, height, and movement on the map or in text.







IsCatalogInMostPopularTable: catalog: 40889, numindb: 68
Update: records affected: 1



GetName: 40889 GSAT0205 (GALILEO 9)

Hit Count: updated at: Thu, 19 Jul 2018 21:28:19 GMT